EW9523 Weather Reports


Display with metric or nautical units.
time (UTC)temp
F
wind
direction
speed
MPH
gust
MPH
rain 1hr
in
rain 24hr
in
rain mn
in
humidity
%
barometer
mb
20260831003801 87 167 4.0 11.0 0.00 0.00 0.00 40 1009.1
20260831002758 87 114 3.0 10.0 0.00 0.00 0.00 40 1009.1
20260831001758 88 149 5.0 14.0 0.00 0.00 0.00 38 1009.1
20260831000758 89 117 3.0 9.0 0.00 0.00 0.00 37 1009.1
20260830235754 89 146 3.0 12.0 0.00 0.00 0.00 36 1009.2
20260830234752 89 133 3.0 10.0 0.00 0.00 0.00 36 1009.1
20260830233752 89 142 3.0 11.0 0.00 0.00 0.00 36 1009.1
20260830233224 89 128 3.0 10.0 0.00 0.00 0.00 35 1009.2
20260830231749 89 105 3.0 7.0 0.00 0.00 0.00 35 1009.2
20260830230749 88 106 3.0 10.0 0.00 0.00 0.00 35 1009.3
20260830225747 88 183 4.0 12.0 0.00 0.00 0.00 35 1009.5
20260830224746 88 108 3.0 8.0 0.00 0.00 0.00 35 1009.6
20260830223746 88 147 3.0 9.0 0.00 0.00 0.00 35 1009.8
20260830222747 88 83 4.0 9.0 0.00 0.00 0.00 36 1009.9
20260830221740 87 147 4.0 12.0 0.00 0.00 0.00 36 1010.1
20260830220738 87 199 4.0 9.0 0.00 0.00 0.00 37 1010.3
20260830220216 87 134 2.0 7.0 0.00 0.00 0.00 37 1010.5
20260830215210 87 162 3.0 10.0 0.00 0.00 0.00 37 1010.5
20260830213733 86 127 3.0 9.0 0.00 0.00 0.00 37 1010.8
20260830212729 87 147 3.0 6.0 0.00 0.00 0.00 37 1010.9
20260830211726 86 149 2.0 6.0 0.00 0.00 0.00 37 1011.0
20260830211200 85 117 3.0 9.0 0.00 0.00 0.00 39 1011.0
20260830205726 85 169 3.0 11.0 0.00 0.00 0.00 40 1011.0
20260830204720 84 150 3.0 9.0 0.00 0.00 0.00 40 1011.2
20260830203718 84 101 3.0 8.0 0.00 0.00 0.00 41 1011.3
20260830202717 83 131 3.0 6.0 0.00 0.00 0.00 41 1011.4
20260830201714 83 161 2.0 7.0 0.00 0.00 0.00 43 1011.5
20260830200714 82 260 3.0 7.0 0.00 0.00 0.00 44 1011.6
20260830200157 82 140 3.0 7.0 0.00 0.00 0.00 45 1011.6
20260830194702 81 98 3.0 11.0 0.00 0.00 0.00 45 1011.7
20260830193652 80 109 2.0 7.0 0.00 0.00 0.00 46 1011.8
20260830192650 79 270 2.0 6.0 0.00 0.00 0.00 47 1012.0
20260830191646 79 119 3.0 9.0 0.00 0.00 0.00 48 1012.1
20260830190644 79 105 2.0 6.0 0.00 0.00 0.00 47 1012.2
20260830185644 78 112 3.0 6.0 0.00 0.00 0.00 49 1012.1
20260830184644 77 148 2.0 6.0 0.00 0.00 0.00 50 1012.2
20260830183644 76 128 2.0 6.0 0.00 0.00 0.00 51 1012.3
20260830182644 75 178 2.0 7.0 0.00 0.00 0.00 52 1012.3
20260830181642 74 232 2.0 5.0 0.00 0.00 0.00 53 1012.4
20260830180628 73 209 1.0 6.0 0.00 0.00 0.00 55 1012.4
20260830175616 72 217 2.0 5.0 0.00 0.00 0.00 56 1012.3
20260830174612 71 221 2.0 6.0 0.00 0.00 0.00 58 1012.4
20260830173613 71 190 1.0 4.0 0.00 0.00 0.00 60 1012.5
20260830172610 69 281 1.0 3.0 0.00 0.00 0.00 60 1012.5
20260830172057 68 172 1.0 3.0 0.00 0.00 0.00 62 1012.3
20260830171026 67 176 1.0 3.0 0.00 0.00 0.00 64 1012.4
20260830165552 66 261 0.0 2.0 0.00 0.00 0.00 65 1012.5
20260830164544 65 288 0.0 3.0 0.00 0.00 0.00 66 1012.5
20260830163532 65 231 1.0 3.0 0.00 0.00 0.00 67 1012.5
20260830163455 64 277 0.0 3.0 0.00 0.00 0.00 69 1012.6
20260830161508 62 238 0.0 3.0 0.00 0.00 0.00 72 1012.7
20260830160451 61 211 1.0 3.0 0.00 0.00 0.00 73 1012.6
20260830155443 59 259 0.0 0.0 0.00 0.00 0.00 76 1012.6
20260830154912 58 159 0.0 0.0 0.00 0.00 0.00 79 1012.6
20260830153430 56 98 0.0 0.0 0.00 0.00 0.00 81 1012.5
20260830152430 55 98 0.0 0.0 0.00 0.00 0.00 83 1012.5
20260830151430 54 98 0.0 0.0 0.00 0.00 0.00 83 1012.6
20260830150426 54 100 0.0 0.0 0.00 0.00 0.00 84 1012.5
20260830150310 53 100 0.0 0.0 0.00 0.00 0.00 86 1012.6
20260830144346 53 100 0.0 0.0 0.00 0.00 0.00 85 1012.4
20260830143339 53 100 0.0 2.0 0.00 0.00 0.00 86 1012.4
20260830142323 53 100 0.0 0.0 0.00 0.00 0.00 85 1012.2
20260830142134 53 100 0.0 0.0 0.00 0.00 0.00 84 1011.9
20260830141809 53 100 0.0 0.0 0.00 0.00 0.00 85 1012.1
20260830135244 53 100 0.0 0.0 0.00 0.00 0.00 85 1011.9
20260830134239 53 100 0.0 0.0 0.00 0.00 0.00 84 1011.8
20260830133218 54 100 0.0 0.0 0.00 0.00 0.00 84 1011.6
20260830132200 54 100 0.0 0.0 0.00 0.00 0.00 83 1011.5
20260830131157 54 100 0.0 0.0 0.00 0.00 0.00 83 1011.5
20260830130623 54 100 0.0 1.0 0.00 0.00 0.00 82 1011.4
20260830125135 55 100 0.0 2.0 0.00 0.00 0.00 82 1011.4
20260830124135 55 100 0.0 1.0 0.00 0.00 0.00 81 1011.3
20260830123135 55 100 0.0 0.0 0.00 0.00 0.00 81 1011.3
20260830122612 55 100 0.0 0.0 0.00 0.00 0.00 81 1011.3
20260830121610 55 100 0.0 0.0 0.00 0.00 0.00 80 1011.2
20260830120614 56 100 0.0 2.0 0.00 0.00 0.00 80 1011.2
20260830115544 56 100 0.0 3.0 0.00 0.00 0.00 80 1011.2
20260830114053 56 94 0.0 0.0 0.00 0.00 0.00 79 1011.2
20260830113054 56 94 0.0 0.0 0.00 0.00 0.00 79 1011.2
20260830112045 56 94 0.0 0.0 0.00 0.00 0.00 79 1011.2
20260830111037 56 94 0.0 3.0 0.00 0.00 0.00 79 1011.2
20260830110021 56 94 0.0 0.0 0.00 0.00 0.00 77 1011.2
20260830105015 57 94 0.0 0.0 0.00 0.00 0.00 77 1011.3
20260830104008 57 94 0.0 1.0 0.00 0.00 0.00 77 1011.3
20260830102951 57 94 1.0 3.0 0.00 0.00 0.00 77 1011.3
20260830101941 58 115 1.0 3.0 0.00 0.00 0.00 76 1011.2
20260830100941 58 117 1.0 3.0 0.00 0.00 0.00 75 1011.2
20260830095942 59 117 1.0 3.0 0.00 0.00 0.00 74 1011.2
20260830094940 59 109 0.0 2.0 0.00 0.00 0.00 73 1011.3
20260830093941 60 350 0.0 0.0 0.00 0.00 0.00 72 1011.2
20260830092936 60 350 0.0 0.0 0.00 0.00 0.00 72 1011.1
20260830091934 60 350 0.0 0.0 0.00 0.00 0.00 71 1011.1
20260830090930 60 350 0.0 0.0 0.00 0.00 0.00 70 1011.0
20260830090354 61 350 0.0 0.0 0.00 0.00 0.00 70 1011.2
20260830084909 61 297 0.0 0.0 0.00 0.00 0.00 70 1011.2
20260830083909 61 298 0.0 2.0 0.00 0.00 0.00 70 1011.2
20260830082857 61 338 1.0 2.0 0.00 0.00 0.00 70 1011.2
20260830081855 60 19 0.0 1.0 0.00 0.00 0.00 70 1011.2
20260830080853 61 19 0.0 0.0 0.00 0.00 0.00 70 1011.2
20260830075851 61 19 0.0 1.0 0.00 0.00 0.00 69 1011.3
20260830075321 61 19 0.0 2.0 0.00 0.00 0.00 69 1011.3
20260830074320 61 12 0.0 0.0 0.00 0.00 0.00 69 1011.4
20260830072831 62 12 0.0 0.0 0.00 0.00 0.00 68 1011.4
20260830071820 62 12 0.0 0.0 0.00 0.00 0.00 67 1011.4
20260830070805 62 12 0.0 0.0 0.00 0.00 0.00 66 1011.5
20260830070726 62 12 0.0 0.0 0.00 0.00 0.00 67 1011.6
20260830065217 62 12 0.0 0.0 0.00 0.00 0.00 66 1011.6
20260830063740 63 12 0.0 1.0 0.00 0.00 0.00 64 1011.6
20260830062736 63 5 1.0 2.0 0.00 0.00 0.00 64 1011.5
20260830061729 63 23 1.0 2.0 0.00 0.00 0.00 64 1011.6
20260830060727 63 5 2.0 3.0 0.00 0.00 0.00 63 1011.5
20260830055728 64 37 2.0 4.0 0.00 0.00 0.00 63 1011.6
20260830054716 64 32 2.0 4.0 0.00 0.00 0.00 62 1011.7
20260830054149 65 35 1.0 3.0 0.00 0.00 0.00 61 1011.7
20260830052712 65 5 2.0 4.0 0.00 0.00 0.00 59 1011.8
20260830051654 66 5 2.0 6.0 0.00 0.00 0.00 59 1011.8
20260830051142 66 326 2.0 5.0 0.00 0.00 0.00 58 1011.9
20260830050137 66 0 2.0 5.0 0.00 0.00 0.00 57 1011.9
20260830044649 67 0 1.0 5.0 0.00 0.00 0.00 56 1011.8
20260830043647 68 309 2.0 5.0 0.00 0.00 0.00 54 1011.8
20260830042647 68 344 2.0 10.0 0.00 0.00 0.00 53 1011.8
20260830041648 69 313 3.0 9.0 0.00 0.00 0.00 53 1011.6
20260830040648 69 296 4.0 7.0 0.00 0.00 0.00 52 1011.6
20260830035649 69 315 2.0 6.0 0.00 0.00 0.00 51 1011.5
20260830034648 70 321 1.0 3.0 0.00 0.00 0.00 49 1011.5
20260830033648 71 5 1.0 5.0 0.00 0.00 0.00 48 1011.4
20260830032648 71 346 1.0 3.0 0.00 0.00 0.00 47 1011.2
20260830031647 72 32 1.0 4.0 0.00 0.00 0.00 46 1011.0
20260830030636 73 16 1.0 4.0 0.00 0.00 0.00 45 1010.9
20260830025632 74 22 1.0 4.0 0.00 0.00 0.00 42 1010.9
20260830024632 75 12 1.0 6.0 0.00 0.00 0.00 41 1010.8
20260830023629 76 242 2.0 7.0 0.00 0.00 0.00 40 1010.7
20260830022629 77 145 4.0 11.0 0.00 0.00 0.00 39 1010.7
20260830021629 78 198 6.0 13.0 0.00 0.00 0.00 39 1010.8
20260830021106 79 242 6.0 13.0 0.00 0.00 0.00 39 1010.8
20260830020105 80 270 6.0 14.0 0.00 0.00 0.00 38 1010.9
20260830014631 81 256 7.0 13.0 0.00 0.00 0.00 38 1010.8
20260830013630 82 306 5.0 10.0 0.00 0.00 0.00 38 1010.8
20260830012623 82 279 6.0 12.0 0.00 0.00 0.00 37 1010.7
20260830011622 83 290 5.0 12.0 0.00 0.00 0.00 37 1010.7
20260830010620 84 286 6.0 12.0 0.00 0.00 0.00 36 1010.7
20260830005618 85 196 4.0 10.0 0.00 0.00 0.00 36 1010.7
20260830005055 86 248 3.0 10.0 0.00 0.00 0.00 35 1010.7